Year,Month,Day,Hour,Minute,Value (Times are PST for temperature in C)
2009,07,29,00,00,19.50
2009,07,29,00,01,19.50
2009,07,29,00,02,19.50
2009,07,29,00,03,19.40
2009,07,29,00,04,19.40
2009,07,29,00,05,19.30
2009,07,29,00,06,19.20
2009,07,29,00,07,19.10
2009,07,29,00,08,19.10
2009,07,29,00,09,19.00
2009,07,29,00,10,18.90
2009,07,29,00,11,18.90
2009,07,29,00,12,18.90
2009,07,29,00,13,18.90
2009,07,29,00,14,18.90
2009,07,29,00,15,18.90
2009,07,29,00,16,18.90
2009,07,29,00,17,18.80
2009,07,29,00,18,18.80
2009,07,29,00,19,18.80
2009,07,29,00,20,18.70
2009,07,29,00,21,18.70
2009,07,29,00,22,18.60
2009,07,29,00,23,18.60
2009,07,29,00,24,18.60
2009,07,29,00,25,18.50
2009,07,29,00,26,18.50
2009,07,29,00,27,18.50
2009,07,29,00,28,18.50
2009,07,29,00,29,18.40
2009,07,29,00,30,18.40
2009,07,29,00,31,18.30
2009,07,29,00,32,18.30
2009,07,29,00,33,18.20
2009,07,29,00,34,18.20
2009,07,29,00,35,18.20
2009,07,29,00,36,18.10
2009,07,29,00,37,18.10
2009,07,29,00,38,18.10
2009,07,29,00,39,17.90
2009,07,29,00,40,17.90
2009,07,29,00,41,17.90
2009,07,29,00,42,17.90
2009,07,29,00,43,17.90
2009,07,29,00,44,17.90
2009,07,29,00,45,17.90
2009,07,29,00,46,18.00
2009,07,29,00,47,18.10
2009,07,29,00,48,18.10
2009,07,29,00,49,18.10
2009,07,29,00,50,18.10
2009,07,29,00,51,18.10
2009,07,29,00,52,18.20
2009,07,29,00,53,18.20
2009,07,29,00,54,18.20
2009,07,29,00,55,18.20
2009,07,29,00,56,18.20
2009,07,29,00,57,18.20
2009,07,29,00,58,18.30
2009,07,29,00,59,18.30
2009,07,29,01,00,18.40
2009,07,29,01,01,18.40
2009,07,29,01,02,18.50
2009,07,29,01,03,18.50
2009,07,29,01,04,18.60
2009,07,29,01,05,18.60
2009,07,29,01,06,18.60
2009,07,29,01,07,18.70
2009,07,29,01,08,18.70
2009,07,29,01,09,18.80
2009,07,29,01,10,18.80
2009,07,29,01,11,18.90
2009,07,29,01,12,18.90
2009,07,29,01,13,18.90
2009,07,29,01,14,19.00
2009,07,29,01,15,19.10
2009,07,29,01,16,19.10
2009,07,29,01,17,19.10
2009,07,29,01,18,19.10
2009,07,29,01,19,19.10
2009,07,29,01,20,19.10
2009,07,29,01,21,19.10
2009,07,29,01,22,19.10
2009,07,29,01,23,19.10
2009,07,29,01,24,19.10
2009,07,29,01,25,19.20
2009,07,29,01,26,19.20
2009,07,29,01,27,19.20
2009,07,29,01,28,19.20
2009,07,29,01,29,19.20
2009,07,29,01,30,19.20
2009,07,29,01,31,19.30
2009,07,29,01,32,19.30
2009,07,29,01,33,19.30
2009,07,29,01,34,19.40
2009,07,29,01,35,19.40
2009,07,29,01,36,19.40
2009,07,29,01,37,19.50
2009,07,29,01,38,19.50
2009,07,29,01,39,19.50
2009,07,29,01,40,19.50
2009,07,29,01,41,19.60
2009,07,29,01,42,19.60
2009,07,29,01,43,19.60
2009,07,29,01,44,19.60
2009,07,29,01,45,19.60
2009,07,29,01,46,19.60
2009,07,29,01,47,19.50
2009,07,29,01,48,19.50
2009,07,29,01,49,19.40
2009,07,29,01,50,19.40
2009,07,29,01,51,19.30
2009,07,29,01,52,19.30
2009,07,29,01,53,19.20
2009,07,29,01,54,19.10
2009,07,29,01,55,19.10
2009,07,29,01,56,19.10
2009,07,29,01,57,19.00
2009,07,29,01,58,18.90
2009,07,29,01,59,18.90
2009,07,29,02,00,18.90
2009,07,29,02,01,18.80
2009,07,29,02,02,18.80
2009,07,29,02,03,18.70
2009,07,29,02,04,18.70
2009,07,29,02,05,18.70
2009,07,29,02,06,18.60
2009,07,29,02,07,18.60
2009,07,29,02,08,18.60
2009,07,29,02,09,18.50
2009,07,29,02,10,18.50
2009,07,29,02,11,18.40
2009,07,29,02,12,18.40
2009,07,29,02,13,18.40
2009,07,29,02,14,18.40
2009,07,29,02,15,18.30
2009,07,29,02,16,18.30
2009,07,29,02,17,18.30
2009,07,29,02,18,18.20
2009,07,29,02,19,18.20
2009,07,29,02,20,18.20
2009,07,29,02,21,18.20
2009,07,29,02,22,18.20
2009,07,29,02,23,18.20
2009,07,29,02,24,18.20
2009,07,29,02,25,18.20
2009,07,29,02,26,18.20
2009,07,29,02,27,18.20
2009,07,29,02,28,18.20
2009,07,29,02,29,18.20
2009,07,29,02,30,18.20
2009,07,29,02,31,18.20
2009,07,29,02,32,18.20
2009,07,29,02,33,18.20
2009,07,29,02,34,18.20
2009,07,29,02,35,18.20
2009,07,29,02,36,18.20
2009,07,29,02,37,18.20
2009,07,29,02,38,18.20
2009,07,29,02,39,18.20
2009,07,29,02,40,18.20
2009,07,29,02,41,18.20
2009,07,29,02,42,18.20
2009,07,29,02,43,18.30
2009,07,29,02,44,18.30
2009,07,29,02,45,18.30
2009,07,29,02,46,18.30
2009,07,29,02,47,18.30
2009,07,29,02,48,18.30
2009,07,29,02,49,18.30
2009,07,29,02,50,18.30
2009,07,29,02,51,18.30
2009,07,29,02,52,18.30
2009,07,29,02,53,18.30
2009,07,29,02,54,18.30
2009,07,29,02,55,18.30
2009,07,29,02,56,18.30
2009,07,29,02,57,18.30
2009,07,29,02,58,18.30
2009,07,29,02,59,18.30
2009,07,29,03,00,18.20
2009,07,29,03,01,18.20
2009,07,29,03,02,18.20
2009,07,29,03,03,18.20
2009,07,29,03,04,18.20
2009,07,29,03,05,18.20
2009,07,29,03,06,18.20
2009,07,29,03,07,18.10
2009,07,29,03,08,18.10
2009,07,29,03,09,18.10
2009,07,29,03,10,18.10
2009,07,29,03,11,18.10
2009,07,29,03,12,18.00
2009,07,29,03,13,17.90
2009,07,29,03,14,17.90
2009,07,29,03,15,17.90
2009,07,29,03,16,17.90
2009,07,29,03,17,17.90
2009,07,29,03,18,17.90
2009,07,29,03,19,17.80
2009,07,29,03,20,17.80
2009,07,29,03,21,17.70
2009,07,29,03,22,17.70
2009,07,29,03,23,17.60
2009,07,29,03,24,17.60
2009,07,29,03,25,17.50
2009,07,29,03,26,17.50
2009,07,29,03,27,17.50
2009,07,29,03,28,17.40
2009,07,29,03,29,17.40
2009,07,29,03,30,17.40
2009,07,29,03,31,17.40
2009,07,29,03,32,17.30
2009,07,29,03,33,17.30
2009,07,29,03,34,17.30
2009,07,29,03,35,17.30
2009,07,29,03,36,17.30
2009,07,29,03,37,17.30
2009,07,29,03,38,17.30
2009,07,29,03,39,17.20
2009,07,29,03,40,17.20
2009,07,29,03,41,17.10
2009,07,29,03,42,17.10
2009,07,29,03,43,17.00
2009,07,29,03,44,17.00
2009,07,29,03,45,17.00
2009,07,29,03,46,16.90
2009,07,29,03,47,16.90
2009,07,29,03,48,16.90
2009,07,29,03,49,16.90
2009,07,29,03,50,16.80
2009,07,29,03,51,16.80
2009,07,29,03,52,16.80
2009,07,29,03,53,16.80
2009,07,29,03,54,16.80
2009,07,29,03,55,16.80
2009,07,29,03,56,16.80
2009,07,29,03,57,16.80
2009,07,29,03,58,16.80
2009,07,29,03,59,16.80
2009,07,29,04,00,16.70
2009,07,29,04,01,16.70
2009,07,29,04,02,16.70
2009,07,29,04,03,16.70
2009,07,29,04,04,16.70
2009,07,29,04,05,16.70
2009,07,29,04,06,16.70
2009,07,29,04,07,16.70
2009,07,29,04,08,16.70
2009,07,29,04,09,16.60
2009,07,29,04,10,16.60
2009,07,29,04,11,16.60
2009,07,29,04,12,16.60
2009,07,29,04,13,16.50
2009,07,29,04,14,16.40
2009,07,29,04,15,16.40
2009,07,29,04,16,16.40
2009,07,29,04,17,16.40
2009,07,29,04,18,16.40
2009,07,29,04,19,16.60
2009,07,29,04,20,16.60
2009,07,29,04,21,16.60
2009,07,29,04,22,16.60
2009,07,29,04,23,16.60
2009,07,29,04,24,16.60
2009,07,29,04,25,16.60
2009,07,29,04,26,16.60
2009,07,29,04,27,16.60
2009,07,29,04,28,16.60
2009,07,29,04,29,16.60
2009,07,29,04,30,16.60
2009,07,29,04,31,16.60
2009,07,29,04,32,16.70
2009,07,29,04,33,16.70
2009,07,29,04,34,16.70
2009,07,29,04,35,16.70
2009,07,29,04,36,16.80
2009,07,29,04,37,16.80
2009,07,29,04,38,16.80
2009,07,29,04,39,16.90
2009,07,29,04,40,16.90
2009,07,29,04,41,16.90
2009,07,29,04,42,16.90
2009,07,29,04,43,17.00
2009,07,29,04,44,17.00
2009,07,29,04,45,17.00
2009,07,29,04,46,17.10
2009,07,29,04,47,17.10
2009,07,29,04,48,17.20
2009,07,29,04,49,17.20
2009,07,29,04,50,17.30
2009,07,29,04,51,17.30
2009,07,29,04,52,17.30
2009,07,29,04,53,17.30
2009,07,29,04,54,17.30
2009,07,29,04,55,17.30
2009,07,29,04,56,17.30
2009,07,29,04,57,17.30
2009,07,29,04,58,17.30
2009,07,29,04,59,17.30
2009,07,29,05,00,17.30
2009,07,29,05,01,17.30
2009,07,29,05,02,17.30
2009,07,29,05,03,17.30
2009,07,29,05,04,17.20
2009,07,29,05,05,17.20
2009,07,29,05,06,17.10
2009,07,29,05,07,17.10
2009,07,29,05,08,17.00
2009,07,29,05,09,17.00
2009,07,29,05,10,17.00
2009,07,29,05,11,16.90
2009,07,29,05,12,16.90
2009,07,29,05,13,16.90
2009,07,29,05,14,16.90
2009,07,29,05,15,16.90
2009,07,29,05,16,16.90
2009,07,29,05,17,16.80
2009,07,29,05,18,16.80
2009,07,29,05,19,16.80
2009,07,29,05,20,16.80
2009,07,29,05,21,16.80
2009,07,29,05,22,16.80
2009,07,29,05,23,16.80
2009,07,29,05,24,16.80
2009,07,29,05,25,16.80
2009,07,29,05,26,16.80
2009,07,29,05,27,16.90
2009,07,29,05,28,16.90
2009,07,29,05,29,16.90
2009,07,29,05,30,16.90
2009,07,29,05,31,16.90
2009,07,29,05,32,17.00
2009,07,29,05,33,17.00
2009,07,29,05,34,17.00
2009,07,29,05,35,17.00
2009,07,29,05,36,17.00
2009,07,29,05,37,17.00
2009,07,29,05,38,17.00
2009,07,29,05,39,17.00
2009,07,29,05,40,17.00
2009,07,29,05,41,17.00
2009,07,29,05,42,17.00
2009,07,29,05,43,17.10
2009,07,29,05,44,17.10
2009,07,29,05,45,17.10
2009,07,29,05,46,17.10
2009,07,29,05,47,17.10
2009,07,29,05,48,17.20
2009,07,29,05,49,17.20
2009,07,29,05,50,17.30
2009,07,29,05,51,17.30
2009,07,29,05,52,17.30
2009,07,29,05,53,17.30
2009,07,29,05,54,17.30
2009,07,29,05,55,17.30
2009,07,29,05,56,17.40
2009,07,29,05,57,17.40
2009,07,29,05,58,17.40
2009,07,29,05,59,17.40
2009,07,29,06,00,17.30
2009,07,29,06,01,17.30
2009,07,29,06,02,17.30
2009,07,29,06,03,17.30
2009,07,29,06,04,17.30
2009,07,29,06,05,17.20
2009,07,29,06,06,17.10
2009,07,29,06,07,17.10
2009,07,29,06,08,17.00
2009,07,29,06,09,17.00
2009,07,29,06,10,17.00
2009,07,29,06,11,17.00
2009,07,29,06,12,17.00
2009,07,29,06,13,17.00
2009,07,29,06,14,17.00
2009,07,29,06,15,17.10
2009,07,29,06,16,17.10
2009,07,29,06,17,17.20
2009,07,29,06,18,17.20
2009,07,29,06,19,17.20
2009,07,29,06,20,17.20
2009,07,29,06,21,17.20
2009,07,29,06,22,17.20
2009,07,29,06,23,17.20
2009,07,29,06,24,17.20
2009,07,29,06,25,17.20
2009,07,29,06,26,17.30
2009,07,29,06,27,17.30
2009,07,29,06,28,17.30
2009,07,29,06,29,17.40
2009,07,29,06,30,17.40
2009,07,29,06,31,17.50
2009,07,29,06,32,17.60
2009,07,29,06,33,17.70
2009,07,29,06,34,17.70
2009,07,29,06,35,17.70
2009,07,29,06,36,17.70
2009,07,29,06,37,17.70
2009,07,29,06,38,17.70
2009,07,29,06,39,17.70
2009,07,29,06,40,17.60
2009,07,29,06,41,17.50
2009,07,29,06,42,17.40
2009,07,29,06,43,17.30
2009,07,29,06,44,17.20
2009,07,29,06,45,17.20
2009,07,29,06,46,17.00
2009,07,29,06,47,17.00
2009,07,29,06,48,16.90
2009,07,29,06,49,16.90
2009,07,29,06,50,16.80
2009,07,29,06,51,16.70
2009,07,29,06,52,16.70
2009,07,29,06,53,16.70
2009,07,29,06,54,16.70
2009,07,29,06,55,16.70
2009,07,29,06,56,16.70
2009,07,29,06,57,16.70
2009,07,29,06,58,16.70
2009,07,29,06,59,16.70
2009,07,29,07,00,16.70
2009,07,29,07,01,16.70
2009,07,29,07,02,16.70
2009,07,29,07,03,16.70
2009,07,29,07,04,16.70
2009,07,29,07,05,16.70
2009,07,29,07,06,16.70
2009,07,29,07,07,16.80
2009,07,29,07,08,16.80
2009,07,29,07,09,16.90
2009,07,29,07,10,16.90
2009,07,29,07,11,17.00
2009,07,29,07,12,17.10
2009,07,29,07,13,17.20
2009,07,29,07,14,17.30
2009,07,29,07,15,17.40
2009,07,29,07,16,17.50
2009,07,29,07,17,17.60
2009,07,29,07,18,17.70
2009,07,29,07,19,17.80
2009,07,29,07,20,17.90
2009,07,29,07,21,17.90
2009,07,29,07,22,17.90
2009,07,29,07,23,18.00
2009,07,29,07,24,18.10
2009,07,29,07,25,18.20
2009,07,29,07,26,18.30
2009,07,29,07,27,18.40
2009,07,29,07,28,18.60
2009,07,29,07,29,18.70
2009,07,29,07,30,18.80
2009,07,29,07,31,18.90
2009,07,29,07,32,19.00
2009,07,29,07,33,19.10
2009,07,29,07,34,19.30
2009,07,29,07,35,19.40
2009,07,29,07,36,19.50
2009,07,29,07,37,19.60
2009,07,29,07,38,19.70
2009,07,29,07,39,19.80
2009,07,29,07,40,19.90
2009,07,29,07,41,20.00
2009,07,29,07,42,20.10
2009,07,29,07,43,20.20
2009,07,29,07,44,20.20
2009,07,29,07,45,20.30
2009,07,29,07,46,20.40
2009,07,29,07,47,20.50
2009,07,29,07,48,20.50
2009,07,29,07,49,20.60
2009,07,29,07,50,20.60
2009,07,29,07,51,20.70
2009,07,29,07,52,20.70
2009,07,29,07,53,20.60
2009,07,29,07,54,20.60
2009,07,29,07,55,20.50
2009,07,29,07,56,20.50
2009,07,29,07,57,20.40
2009,07,29,07,58,20.30
2009,07,29,07,59,20.20
2009,07,29,08,00,20.20
2009,07,29,08,01,20.20
2009,07,29,08,02,20.20
2009,07,29,08,03,20.20
2009,07,29,08,04,20.20
2009,07,29,08,05,20.20
2009,07,29,08,06,20.20
2009,07,29,08,07,20.20
2009,07,29,08,08,20.20
2009,07,29,08,09,20.20
2009,07,29,08,10,20.20
2009,07,29,08,11,20.20
2009,07,29,08,12,20.30
2009,07,29,08,13,20.30
2009,07,29,08,14,20.40
2009,07,29,08,15,20.30
2009,07,29,08,16,20.30
2009,07,29,08,17,20.20
2009,07,29,08,18,20.20
2009,07,29,08,19,20.20
2009,07,29,08,20,20.20
2009,07,29,08,21,20.20
2009,07,29,08,22,20.20
2009,07,29,08,23,20.20
2009,07,29,08,24,20.30
2009,07,29,08,25,20.30
2009,07,29,08,26,20.40
2009,07,29,08,27,20.50
2009,07,29,08,28,20.50
2009,07,29,08,29,20.60
2009,07,29,08,30,20.70
2009,07,29,08,31,20.80
2009,07,29,08,32,20.90
2009,07,29,08,33,21.00
2009,07,29,08,34,21.10
2009,07,29,08,35,21.30
2009,07,29,08,36,21.40
2009,07,29,08,37,21.50
2009,07,29,08,38,21.60
2009,07,29,08,39,21.70
2009,07,29,08,40,21.90
2009,07,29,08,41,22.00
2009,07,29,08,42,22.00
2009,07,29,08,43,22.20
2009,07,29,08,44,22.20
2009,07,29,08,45,22.30
2009,07,29,08,46,22.30
2009,07,29,08,47,22.40
2009,07,29,08,48,22.50
2009,07,29,08,49,22.60
2009,07,29,08,50,22.60
2009,07,29,08,51,22.70
2009,07,29,08,52,22.70
2009,07,29,08,53,22.70
2009,07,29,08,54,22.70
2009,07,29,08,55,22.80
2009,07,29,08,56,22.80
2009,07,29,08,57,22.90
2009,07,29,08,58,22.90
2009,07,29,08,59,23.00
2009,07,29,09,00,23.10
2009,07,29,09,01,23.20
2009,07,29,09,02,23.20
2009,07,29,09,03,23.30
2009,07,29,09,04,23.30
2009,07,29,09,05,23.20
2009,07,29,09,06,23.20
2009,07,29,09,07,23.10
2009,07,29,09,08,23.10
2009,07,29,09,09,23.10
2009,07,29,09,10,23.10
2009,07,29,09,11,23.10
2009,07,29,09,12,23.00
2009,07,29,09,13,22.90
2009,07,29,09,14,22.90
2009,07,29,09,15,22.90
2009,07,29,09,16,23.00
2009,07,29,09,17,23.10
2009,07,29,09,18,23.10
2009,07,29,09,19,23.20
2009,07,29,09,20,23.20
2009,07,29,09,21,23.30
2009,07,29,09,22,23.30
2009,07,29,09,23,23.30
2009,07,29,09,24,23.30
2009,07,29,09,25,23.30
2009,07,29,09,26,23.30
2009,07,29,09,27,23.30
2009,07,29,09,28,23.30
2009,07,29,09,29,23.40
2009,07,29,09,30,23.40
2009,07,29,09,31,23.40
2009,07,29,09,32,23.60
2009,07,29,09,33,23.60
2009,07,29,09,34,23.60
2009,07,29,09,35,23.70
2009,07,29,09,36,23.70
2009,07,29,09,37,23.70
2009,07,29,09,38,23.80
2009,07,29,09,39,23.80
2009,07,29,09,40,23.80
2009,07,29,09,41,23.80
2009,07,29,09,42,23.80
2009,07,29,09,43,23.80
2009,07,29,09,44,23.70
2009,07,29,09,45,23.70
2009,07,29,09,46,23.70
2009,07,29,09,47,23.70
2009,07,29,09,48,23.70
2009,07,29,09,49,23.70
2009,07,29,09,50,23.70
2009,07,29,09,51,23.60
2009,07,29,09,52,23.60
2009,07,29,09,53,23.60
2009,07,29,09,54,23.60
2009,07,29,09,55,23.60
2009,07,29,09,56,23.60
2009,07,29,09,57,23.60
2009,07,29,09,58,23.50
2009,07,29,09,59,23.40
2009,07,29,10,00,23.30
2009,07,29,10,01,23.30
2009,07,29,10,02,23.20
2009,07,29,10,03,23.10
2009,07,29,10,04,23.10
2009,07,29,10,05,23.10
2009,07,29,10,06,23.10
2009,07,29,10,07,23.20
2009,07,29,10,08,23.30
2009,07,29,10,09,23.40
2009,07,29,10,10,23.50
2009,07,29,10,11,23.60
2009,07,29,10,12,23.70
2009,07,29,10,13,23.80
2009,07,29,10,14,23.90
2009,07,29,10,15,24.10
2009,07,29,10,16,24.10
2009,07,29,10,17,24.10
2009,07,29,10,18,24.20
2009,07,29,10,19,24.30
2009,07,29,10,20,24.30
2009,07,29,10,21,24.40
2009,07,29,10,22,24.40
2009,07,29,10,23,24.50
2009,07,29,10,24,24.50
2009,07,29,10,25,24.60
2009,07,29,10,26,24.60
2009,07,29,10,27,24.70
2009,07,29,10,28,24.80
2009,07,29,10,29,24.80
2009,07,29,10,30,24.90
2009,07,29,10,31,24.90
2009,07,29,10,32,24.90
2009,07,29,10,33,24.90
2009,07,29,10,34,24.90
2009,07,29,10,35,25.00
2009,07,29,10,36,24.90
2009,07,29,10,37,24.90
2009,07,29,10,38,24.80
2009,07,29,10,39,24.80
2009,07,29,10,40,24.80
2009,07,29,10,41,24.80
2009,07,29,10,42,24.80
2009,07,29,10,43,24.80
2009,07,29,10,44,24.80
2009,07,29,10,45,24.80
2009,07,29,10,46,24.80
2009,07,29,10,47,24.90
2009,07,29,10,48,24.90
2009,07,29,10,49,24.90
2009,07,29,10,50,25.00
2009,07,29,10,51,25.00
2009,07,29,10,52,25.00
2009,07,29,10,53,25.00
2009,07,29,10,54,25.00
2009,07,29,10,55,25.10
2009,07,29,10,56,25.10
2009,07,29,10,57,25.10
2009,07,29,10,58,25.10
2009,07,29,10,59,25.10
2009,07,29,11,00,25.20
2009,07,29,11,01,25.30
2009,07,29,11,02,25.30
2009,07,29,11,03,25.40
2009,07,29,11,04,25.50
2009,07,29,11,05,25.60
2009,07,29,11,06,25.60
2009,07,29,11,07,25.70
2009,07,29,11,08,25.70
2009,07,29,11,09,25.70
2009,07,29,11,10,25.70
2009,07,29,11,11,25.70
2009,07,29,11,12,25.80
2009,07,29,11,13,25.80
2009,07,29,11,14,25.90
2009,07,29,11,15,26.00
2009,07,29,11,16,26.00
2009,07,29,11,17,26.00
2009,07,29,11,18,26.10
2009,07,29,11,19,26.10
2009,07,29,11,20,26.20
2009,07,29,11,21,26.20
2009,07,29,11,22,26.20
2009,07,29,11,23,26.20
2009,07,29,11,24,26.20
2009,07,29,11,25,26.30
2009,07,29,11,26,26.30
2009,07,29,11,27,26.40
2009,07,29,11,28,26.40
2009,07,29,11,29,26.40
2009,07,29,11,30,26.40
2009,07,29,11,31,26.30
2009,07,29,11,32,26.30
2009,07,29,11,33,26.20
2009,07,29,11,34,26.20
2009,07,29,11,35,26.10
2009,07,29,11,36,26.10
2009,07,29,11,37,26.10
2009,07,29,11,38,26.20
2009,07,29,11,39,26.20
2009,07,29,11,40,26.20
2009,07,29,11,41,26.30
2009,07,29,11,42,26.40
2009,07,29,11,43,26.40
2009,07,29,11,44,26.50
2009,07,29,11,45,26.60
2009,07,29,11,46,26.60
2009,07,29,11,47,26.70
2009,07,29,11,48,26.70
2009,07,29,11,49,26.70
2009,07,29,11,50,26.80
2009,07,29,11,51,26.80
2009,07,29,11,52,26.80
2009,07,29,11,53,26.80
2009,07,29,11,54,26.80
2009,07,29,11,55,26.80
2009,07,29,11,56,26.70
2009,07,29,11,57,26.60
2009,07,29,11,58,26.60
2009,07,29,11,59,26.60
2009,07,29,12,00,26.60
2009,07,29,12,01,26.60
2009,07,29,12,02,26.60
2009,07,29,12,03,26.50
2009,07,29,12,04,26.40
2009,07,29,12,05,26.40
2009,07,29,12,06,26.40
2009,07,29,12,07,26.30
2009,07,29,12,08,26.30
2009,07,29,12,09,26.30
2009,07,29,12,10,26.40
2009,07,29,12,11,26.40
2009,07,29,12,12,26.40
2009,07,29,12,13,26.40
2009,07,29,12,14,26.40
2009,07,29,12,15,26.40
2009,07,29,12,16,26.40
2009,07,29,12,17,26.50
2009,07,29,12,18,26.60
2009,07,29,12,19,26.60
2009,07,29,12,20,26.70
2009,07,29,12,21,26.80
2009,07,29,12,22,26.90
2009,07,29,12,23,27.00
2009,07,29,12,24,27.10
2009,07,29,12,25,27.10
2009,07,29,12,26,27.10
2009,07,29,12,27,27.10
2009,07,29,12,28,27.10
2009,07,29,12,29,27.20
2009,07,29,12,30,27.30
2009,07,29,12,31,27.40
2009,07,29,12,32,27.50
2009,07,29,12,33,27.60
2009,07,29,12,34,27.60
2009,07,29,12,35,27.70
2009,07,29,12,36,27.70
2009,07,29,12,37,27.70
2009,07,29,12,38,27.70
2009,07,29,12,39,27.80
2009,07,29,12,40,27.80
2009,07,29,12,41,27.70
2009,07,29,12,42,27.70
2009,07,29,12,43,27.80
2009,07,29,12,44,27.80
2009,07,29,12,45,27.80
2009,07,29,12,46,27.80
2009,07,29,12,47,27.80
2009,07,29,12,48,27.80
2009,07,29,12,49,27.70
2009,07,29,12,50,27.70
2009,07,29,12,51,27.70
2009,07,29,12,52,27.70
2009,07,29,12,53,27.60
2009,07,29,12,54,27.60
2009,07,29,12,55,27.60
2009,07,29,12,56,27.60
2009,07,29,12,57,27.60
2009,07,29,12,58,27.60
2009,07,29,12,59,27.60
2009,07,29,13,00,27.60
2009,07,29,13,01,27.70
2009,07,29,13,02,27.70
2009,07,29,13,03,27.70
2009,07,29,13,04,27.80
2009,07,29,13,05,27.80
2009,07,29,13,06,27.80
2009,07,29,13,07,27.90
2009,07,29,13,08,27.90
2009,07,29,13,09,27.90
2009,07,29,13,10,28.00
2009,07,29,13,11,28.10
2009,07,29,13,12,28.10
2009,07,29,13,13,28.20
2009,07,29,13,14,28.30
2009,07,29,13,15,28.40
2009,07,29,13,16,28.40
2009,07,29,13,17,28.40
2009,07,29,13,18,28.30
2009,07,29,13,19,28.30
2009,07,29,13,20,28.40
2009,07,29,13,21,28.40
2009,07,29,13,22,28.40
2009,07,29,13,23,28.40
2009,07,29,13,24,28.50
2009,07,29,13,25,28.60
2009,07,29,13,26,28.70
2009,07,29,13,27,28.70
2009,07,29,13,28,28.80
2009,07,29,13,29,28.90
2009,07,29,13,30,28.90
2009,07,29,13,31,28.90
2009,07,29,13,32,28.80
2009,07,29,13,33,28.70
2009,07,29,13,34,28.70
2009,07,29,13,35,28.70
2009,07,29,13,36,28.80
2009,07,29,13,37,28.80
2009,07,29,13,38,28.80
2009,07,29,13,39,28.90
2009,07,29,13,40,28.90
2009,07,29,13,41,28.90
2009,07,29,13,42,28.90
2009,07,29,13,43,28.90
2009,07,29,13,44,28.90
2009,07,29,13,45,29.00
2009,07,29,13,46,29.10
2009,07,29,13,47,29.20
2009,07,29,13,48,29.20
2009,07,29,13,49,29.30
2009,07,29,13,50,29.30
2009,07,29,13,51,29.30
2009,07,29,13,52,29.40
2009,07,29,13,53,29.40
2009,07,29,13,54,29.50
2009,07,29,13,55,29.50
2009,07,29,13,56,29.50
2009,07,29,13,57,29.50
2009,07,29,13,58,29.60
2009,07,29,13,59,29.60
2009,07,29,14,00,29.70
2009,07,29,14,01,29.70
2009,07,29,14,02,29.80
2009,07,29,14,03,29.80
2009,07,29,14,04,29.80
2009,07,29,14,05,29.80
2009,07,29,14,06,29.90
2009,07,29,14,07,30.00
2009,07,29,14,08,30.10
2009,07,29,14,09,30.10
2009,07,29,14,10,30.20
2009,07,29,14,11,30.30
2009,07,29,14,12,30.30
2009,07,29,14,13,30.40
2009,07,29,14,14,30.50
2009,07,29,14,15,30.60
2009,07,29,14,16,30.60
2009,07,29,14,17,30.70
2009,07,29,14,18,30.70
2009,07,29,14,19,30.70
2009,07,29,14,20,30.70
2009,07,29,14,21,30.70
2009,07,29,14,22,30.60
2009,07,29,14,23,30.60
2009,07,29,14,24,30.60
2009,07,29,14,25,30.40
2009,07,29,14,26,30.40
2009,07,29,14,27,30.30
2009,07,29,14,28,30.20
2009,07,29,14,29,30.10
2009,07,29,14,30,30.10
2009,07,29,14,31,30.10
2009,07,29,14,32,30.10
2009,07,29,14,33,30.10
2009,07,29,14,34,30.10
2009,07,29,14,35,30.10
2009,07,29,14,36,30.10
2009,07,29,14,37,29.90
2009,07,29,14,38,29.90
2009,07,29,14,39,29.90
2009,07,29,14,40,29.90
2009,07,29,14,41,30.10
2009,07,29,14,42,30.10
2009,07,29,14,43,30.20
2009,07,29,14,44,30.20
2009,07,29,14,45,30.20
2009,07,29,14,46,30.20
2009,07,29,14,47,30.10
2009,07,29,14,48,30.10
2009,07,29,14,49,30.20
2009,07,29,14,50,30.20
2009,07,29,14,51,30.20
2009,07,29,14,52,30.10
2009,07,29,14,53,30.10
2009,07,29,14,54,30.10
2009,07,29,14,55,30.20
2009,07,29,14,56,30.20
2009,07,29,14,57,30.20
2009,07,29,14,58,30.20
2009,07,29,14,59,30.30
2009,07,29,15,00,30.30
2009,07,29,15,01,30.40
2009,07,29,15,02,30.50
2009,07,29,15,03,30.60
2009,07,29,15,04,30.60
2009,07,29,15,05,30.60
2009,07,29,15,06,30.60
2009,07,29,15,07,30.60
2009,07,29,15,08,30.60
2009,07,29,15,09,30.70
2009,07,29,15,10,30.80
2009,07,29,15,11,30.80
2009,07,29,15,12,31.00
2009,07,29,15,13,31.10
2009,07,29,15,14,31.10
2009,07,29,15,15,31.20
2009,07,29,15,16,31.20
2009,07,29,15,17,31.20
2009,07,29,15,18,31.20
2009,07,29,15,19,31.20
2009,07,29,15,20,31.20
2009,07,29,15,21,31.30
2009,07,29,15,22,31.30
2009,07,29,15,23,31.30
2009,07,29,15,24,31.30
2009,07,29,15,25,31.30
2009,07,29,15,26,31.30
2009,07,29,15,27,31.30
2009,07,29,15,28,31.30
2009,07,29,15,29,31.40
2009,07,29,15,30,31.40
2009,07,29,15,31,31.60
2009,07,29,15,32,31.60
2009,07,29,15,33,31.60
2009,07,29,15,34,31.60
2009,07,29,15,35,31.60
2009,07,29,15,36,31.50
2009,07,29,15,37,31.40
2009,07,29,15,38,31.40
2009,07,29,15,39,31.40
2009,07,29,15,40,31.40
2009,07,29,15,41,31.40
2009,07,29,15,42,31.60
2009,07,29,15,43,31.50
2009,07,29,15,44,31.60
2009,07,29,15,45,31.60
2009,07,29,15,46,31.70
2009,07,29,15,47,31.70
2009,07,29,15,48,31.70
2009,07,29,15,49,31.80
2009,07,29,15,50,31.80
2009,07,29,15,51,31.80
2009,07,29,15,52,31.80
2009,07,29,15,53,31.90
2009,07,29,15,54,31.90
2009,07,29,15,55,31.90
2009,07,29,15,56,31.90
2009,07,29,15,57,31.90
2009,07,29,15,58,31.90
2009,07,29,15,59,31.90
2009,07,29,16,00,31.90
2009,07,29,16,01,31.90
2009,07,29,16,02,31.90
2009,07,29,16,03,31.90
2009,07,29,16,04,31.80
2009,07,29,16,05,31.60
2009,07,29,16,06,31.50
2009,07,29,16,07,31.40
2009,07,29,16,08,31.40
2009,07,29,16,09,31.30
2009,07,29,16,10,31.20
2009,07,29,16,11,31.20
2009,07,29,16,12,31.20
2009,07,29,16,13,31.20
2009,07,29,16,14,31.20
2009,07,29,16,15,31.20
2009,07,29,16,16,31.20
2009,07,29,16,17,31.20
2009,07,29,16,18,31.20
2009,07,29,16,19,31.20
2009,07,29,16,20,31.20
2009,07,29,16,21,31.20
2009,07,29,16,22,31.20
2009,07,29,16,23,31.20
2009,07,29,16,24,31.20
2009,07,29,16,25,31.20
2009,07,29,16,26,31.30
2009,07,29,16,27,31.30
2009,07,29,16,28,31.40
2009,07,29,16,29,31.50
2009,07,29,16,30,31.60
2009,07,29,16,31,31.60
2009,07,29,16,32,31.70
2009,07,29,16,33,31.80
2009,07,29,16,34,31.90
2009,07,29,16,35,32.00
2009,07,29,16,36,32.10
2009,07,29,16,37,32.20
2009,07,29,16,38,32.30
2009,07,29,16,39,32.30
2009,07,29,16,40,32.40
2009,07,29,16,41,32.50
2009,07,29,16,42,32.50
2009,07,29,16,43,32.50
2009,07,29,16,44,32.50
2009,07,29,16,45,32.50
2009,07,29,16,46,32.60
2009,07,29,16,47,32.60
2009,07,29,16,48,32.60
2009,07,29,16,49,32.80
2009,07,29,16,50,32.80
2009,07,29,16,51,32.80
2009,07,29,16,52,32.80
2009,07,29,16,53,32.90
2009,07,29,16,54,32.80
2009,07,29,16,55,32.70
2009,07,29,16,56,32.60
2009,07,29,16,57,32.60
2009,07,29,16,58,32.60
2009,07,29,16,59,32.50
2009,07,29,17,00,32.60
2009,07,29,17,01,32.60
2009,07,29,17,02,32.60
2009,07,29,17,03,32.70
2009,07,29,17,04,32.80
2009,07,29,17,05,32.70
2009,07,29,17,06,32.60
2009,07,29,17,07,32.60
2009,07,29,17,08,32.50
2009,07,29,17,09,32.40
2009,07,29,17,10,32.40
2009,07,29,17,11,32.40
2009,07,29,17,12,32.30
2009,07,29,17,13,32.30
2009,07,29,17,14,32.40
2009,07,29,17,15,32.30
2009,07,29,17,16,32.20
2009,07,29,17,17,32.10
2009,07,29,17,18,31.90
2009,07,29,17,19,31.80